Location: Rimouski
(48.4330°N, 68.5170°W)
Time: 18:33:25
(UTC-04:00)

Daily predictions for brighter satellites

Satellite Brightness Start Highest point End
(mag) Time Altitude Azimuth Time Altitude Azimuth Time Altitude Azimuth
USA 267 4.1 19:18:16 10° ENE 19:24:21 43° N 19:30:26 10° WNW
Cosmos 1340 Rocket 4.3 19:24:36 10° NNE 19:27:39 20° ENE 19:30:39 10° ESE
SJ-6B 3.0 19:24:56 10° S 19:28:39 71° WSW 19:32:25 10° NNW
Cosmos 2297 4.4 19:24:17 10° SSE 19:29:13 31° ESE 19:34:12 10° NE
Cosmos 2150 Rocket 4.3 19:25:10 10° SSW 19:30:18 74° WNW 19:35:30 10° NNE
Envisat 4.0 19:27:20 10° ESE 19:31:34 27° ENE 19:35:49 10° N
Cosmos 1898 Rocket 4.3 19:26:25 10° SW 19:31:39 58° WNW 19:36:53 10° NNE
COSMO-SKYMED 1 4.4 19:30:59 10° N 19:34:59 37° WNW 19:38:59 10° SW
FengYun 1-2 T 4.4 19:31:37 10° SSE 19:37:13 88° WSW 19:42:54 10° NNW
H-2A R/B 2.8 19:33:54 10° SSE 19:37:47 73° ENE 19:41:45 10° N
Cosmos 2082 Rocket 2.3 19:32:48 10° NNW 19:38:31 66° ENE 19:44:08 10° SE
Cosmos 1048 Rocket 4.0 19:34:20 10° NNW 19:39:26 63° ENE 19:44:31 10° SE
Cosmos 1125 Rocket 3.9 19:35:23 10° S 19:40:11 40° ESE 19:45:03 10° NE
Resurs 1-3 3.6 19:36:35 10° SSE 19:40:56 68° ENE 19:45:18 10° N
Cosmos 1408 Rocket 4.1 19:37:22 10° N 19:41:38 41° ENE 19:45:51 10° SE
Meteor 1-24 Rocket 4.5 19:37:14 10° NNW 19:42:37 58° W 19:48:10 10° S
Timation 2 Rocket 4.1 19:37:19 10° NNW 19:43:41 64° NE 19:49:45 10° SE
Cosmos 482 Debris 2.3 19:42:35 10° WNW 19:44:31 72° NNE 19:45:47 16° ESE
ERS-1 Rocket 4.3 19:43:19 10° ESE 19:47:06 22° ENE 19:50:55 10° N
SeaSat 1 3.0 19:43:03 10° SSE 19:47:55 60° WSW 19:52:50 10° NW
Cosmos 1447 Rocket 4.5 19:44:26 10° N 19:50:35 69° ENE 19:56:42 10° SSE
ALOS 3.1 19:49:39 10° S 19:54:13 54° W 19:58:50 10° NNW
Cosmos 1758 3.3 19:51:27 10° S 19:55:22 61° E 19:59:20 10° NNE
Helios 1B rocket 3.0 19:56:33 10° NNE 20:00:24 36° E 20:04:12 10° SSE
Cosmos 2173 Rocket 4.4 19:56:00 10° SSE 20:01:40 39° E 20:07:26 10° NNE
Okean 3 Rocket 4.1 19:57:23 10° NNW 20:01:44 61° W 20:06:05 10° S
Cosmos 1934 Rocket 4.5 19:56:20 10° SSW 20:02:24 64° WNW 20:08:26 10° N
Cosmos 1953 2.3 19:58:31 10° S 20:02:33 68° E 20:06:36 10° NNE
CZ-3B DEB 2.6 19:52:25 10° WSW 20:02:47 86° NNW 20:07:23 10° ENE
Cosmos 1271 Rocket 3.4 20:00:01 10° SSE 20:03:40 34° E 20:07:21 10° NNE
Cosmos 1076 Rocket 3.5 20:02:18 10° NNW 20:06:35 82° W 20:10:48 10° S
Spot 1 4.3 20:06:25 10° SSE 20:11:08 82° ENE 20:16:10 10° NNW
Meteor 1-29 3.6 20:08:03 10° NNE 20:11:17 35° E 20:14:31 10° SSE
SAR-Lupe-4 3.5 20:07:48 10° SSE 20:11:24 87° ENE 20:15:01 10° NNW
Cosmos 1939 Rocket 3.4 20:08:20 15° SE 20:11:29 43° ENE 20:15:27 10° N
Cosmos 1674 2.6 20:08:05 10° N 20:11:54 80° E 20:15:41 10° SSE
Lacrosse 4 Rocket 3.8 20:08:47 10° W 20:12:07 24° NW 20:15:28 10° NNE
YAOGAN 6 3.8 20:13:09 21° E 20:14:22 25° ENE 20:17:30 10° N
Cosmos 2251 Rocket 3.9 20:12:24 10° NNW 20:17:32 45° ENE 20:20:53 20° SE
COSMOS 2487 3.2 20:15:33 10° NNW 20:19:03 54° WSW 20:22:32 10° S
Lacrosse 5 rocket 1.3 20:16:20 10° WNW 20:20:18 70° SW 20:22:31 23° SE
Helios 1A 3.0 20:17:38 10° SSE 20:21:48 80° WSW 20:26:02 10° NNW
CZ-4B DEB 2.5 20:20:23 18° SSE 20:22:34 78° ENE 20:25:41 10° N
Cosmos 1766 Rocket 3.9 20:23:08 10° NNW 20:27:37 70° W 20:32:04 10° S
SAR-Lupe-1 4.4 20:26:39 10° S 20:30:12 65° WSW 20:33:47 10° NNW
ISS -2.3 20:27:28 10° SSW 20:29:21 22° SSE 20:29:21 22° SSE
USA 215 3.8 20:25:55 10° ENE 20:31:41 32° SE 20:37:23 10° S
GP-B 3.2 20:27:23 10° S 20:31:50 81° W 20:36:18 10° N
Cosmos 372 Rocket 3.9 20:28:00 10° SSW 20:33:07 82° ESE 20:38:19 10° NNE
Cosmos 2016 Rocket 4.1 20:27:36 10° SSE 20:33:32 49° E 20:39:25 10° NNE
Cosmos 2369 Rocket 4.1 20:36:57 12° ENE 20:36:57 12° ENE 20:37:30 10° ENE
Cosmos 2344 4.1 20:27:05 10° SW 20:34:48 67° NW 20:44:05 10° NE
USA 186 3.0 20:33:16 12° SSW 20:34:59 26° W 20:36:57 10° NW
Meteor 1-4 Rocket 3.7 20:32:51 10° SSW 20:36:11 44° WNW 20:39:34 10° N
Cosmos-2242 2.9 20:33:19 10° S 20:37:34 88° E 20:41:52 10° N
Resurs 01 Rocket 3.6 20:35:39 10° SSW 20:39:28 29° W 20:43:20 10° NW
Cosmos 1626 3.8 20:37:41 10° NNE 20:39:52 19° NE 20:39:52 19° NE
Cosmos 1725 Rocket 4.4 20:38:50 21° SE 20:42:28 41° E 20:48:12 10° NNE
BREEZE-M DEB 4.4 20:38:47 10° W 20:42:41 66° N 20:43:18 49° ENE
Cosmos 1833 Rocket 3.6 20:39:04 10° NW 20:44:25 47° WSW 20:49:46 10° S
Lacrosse 5 2.6 20:44:19 10° WSW 20:49:16 52° NNW 20:54:14 10° NE
Cosmos 1356 Rocket 3.2 20:45:39 10° N 20:49:48 71° ENE 20:51:04 42° SSE
Cosmos 389 Rocket 4.1 20:51:53 21° NE 20:51:53 21° NE 20:53:24 10° NNE
Cosmos 2100 Rocket 4.0 20:44:35 10° S 20:50:56 87° WNW 20:57:22 10° N
NOAA 11 4.4 20:52:28 34° ESE 20:54:28 51° ENE 20:59:48 10° N
Cosmos 2221 4.1 20:56:48 21° NE 20:56:48 21° NE 20:58:54 10° NNE
Cosmos 494 Rocket 3.9 20:50:36 10° NNW 20:55:45 88° ENE 20:58:07 33° SSE
SPOT 5 3.5 20:54:21 36° ESE 20:55:53 46° ENE 21:00:56 10° N
Cosmos 2278 Rocket 3.9 20:51:07 10° WSW 20:56:18 35° NW 21:01:30 10° NNE
Cosmos 1470 3.3 20:53:09 10° SSW 20:57:05 59° WNW 21:01:01 10° N
Cosmos 1867 3.8 20:51:52 10° SW 20:57:19 72° NW 21:02:49 10° NE
Tsikada Rocket 4.0 20:51:46 10° N 20:57:56 62° ENE 21:00:51 32° SE
Cosmos 1743 Rocket 3.8 20:54:31 10° NNW 20:58:57 68° W 21:01:43 22° S
Cosmos 1500 Rocket 3.4 20:56:00 10° N 21:00:22 88° W 21:02:00 38° S
Cosmos 1733 3.9 20:56:59 10° SSW 21:00:47 55° WNW 21:04:38 10° N
BREEZE-M DEB (TANK) 4.0 20:57:40 10° SW 21:01:53 50° SE 21:16:53 10° ENE
H-2A R/B 3.7 21:03:15 19° NE 21:03:15 19° NE 21:05:30 10° NNE
ATLAS 5 CENTAUR R/B 1.7 20:58:07 10° SW 21:02:53 87° SE 21:08:10 10° NE
Cosmos 1805 Rocket 4.4 20:59:51 10° N 21:03:32 33° ENE 21:03:32 33° ENE
Cosmos 1340 Rocket 4.1 21:00:32 10° NNW 21:04:19 39° W 21:07:16 15° SSW
USA 267 3.5 21:03:30 30° E 21:06:48 63° NNE 21:13:15 10° NW
Terra 3.4 21:09:03 20° NE 21:09:03 20° NE 21:12:09 10° NNE
Envisat 3.9 21:05:45 11° S 21:10:22 47° W 21:15:17 10° NNW
Cosmos 1802 Rocket 4.1 21:07:18 10° SSW 21:13:25 75° W 21:19:39 10° N
Cosmos 1184 Rocket 4.0 21:11:12 10° NNW 21:14:24 41° W 21:15:03 36° SW
SL-08 RB Rocket 4.0 21:20:51 50° ENE 21:20:51 50° ENE 21:25:18 10° N
Cosmos 2058 2.8 21:17:12 10° N 21:21:23 89° W 21:21:29 86° S
H-2A R/B 2.6 21:21:37 42° ENE 21:21:53 43° ENE 21:26:51 10° N
Cosmos 2082 Rocket 4.3 21:17:46 10° NW 21:22:04 22° W 21:26:20 10° SSW
ERS-1 Rocket 3.4 21:23:19 33° S 21:25:28 61° WSW 21:30:29 10° NNW
CZ-3 Stage 3 4.4 21:06:01 10° W 21:25:41 27° SW 21:29:16 21° S
Meteor 1-11 4.4 21:21:11 10° NNW 21:26:44 68° W 21:29:11 34° S
Cosmos 1816 Rocket 4.4 21:23:21 10° N 21:29:35 86° E 21:31:36 46° SSE
SL-14 R/B 4.3 21:26:01 10° NNW 21:29:40 41° W 21:30:24 37° WSW
MetOp-A 4.1 21:28:59 50° S 21:30:27 81° WSW 21:35:51 10° NNW
Cosmos 2151 3.5 21:27:49 10° NNW 21:32:00 56° W 21:32:36 50° SW
ARGOS 3.0 21:32:39 65° SE 21:33:26 81° ENE 21:38:49 10° NNW
Cosmos 1842 Rocket 4.3 21:34:36 25° SW 21:36:52 50° WNW 21:41:10 10° N
Cosmos 2233 Rocket 3.8 21:46:49 66° SSE 21:47:38 77° E 21:53:48 10° NNE
YAOGAN 6 4.4 21:47:36 28° WSW 21:47:51 28° W 21:51:07 10° NW
USA 245 4.4 21:47:09 58° S 21:48:21 78° WSW 21:54:44 10° NNW
Meteor 2-1 Rocket 4.2 21:51:15 56° SSW 21:52:31 81° WNW 21:58:12 10° N
Lacrosse 5 rocket 4.0 21:57:51 10° WSW 21:58:14 10° WSW 21:58:14 10° WSW
Cosmos 2297 Rocket 4.3 21:59:29 10° N 22:02:31 14° NNE 22:03:42 14° NE
SPOT 1/Viking Rocket 3.7 22:05:57 70° W 22:05:57 70° W 22:11:01 10° NNW
Sich 1 4.2 22:07:16 10° NNW 22:10:13 41° NNW 22:10:13 41° NNW
CZ-4C R/B 4.1 22:17:38 20° NE 22:17:38 20° NE 22:19:31 10° NE
CZ-3B DEB 3.0 22:09:15 10° WNW 22:14:42 34° NNW 22:14:42 34° NNW
Cosmos 407 Rocket 4.4 22:09:46 10° NNW 22:13:46 42° NNE 22:13:46 42° NNE
USA 215 3.1 22:08:37 10° NE 22:15:12 89° NW 22:21:44 10° WSW
Cosmos 1626 4.3 22:12:33 10° NNW 22:14:33 25° NW 22:14:33 25° NW
Cosmos 1833 4.3 22:10:26 10° NNW 22:15:25 70° NNW 22:15:25 70° NNW
Cosmos 2369 Rocket 2.6 22:18:38 53° NNE 22:18:38 53° NNE 22:22:55 10° NNE
Cosmos 1633 Rocket 4.4 22:13:20 10° NNW 22:16:06 37° NNW 22:16:06 37° NNW
Cosmos 2227 Rocket 3.9 22:24:50 10° N 22:29:03 22° NE 22:29:03 22° NE
Cosmos 2221 4.3 22:33:36 30° NW 22:33:36 30° NW 22:36:42 10° N
Lacrosse 5 3.4 22:28:36 10° WNW 22:33:07 31° N 22:33:46 30° NNE
Cosmos 1464 Rocket 4.3 22:36:04 58° NNE 22:36:04 58° NNE 22:41:03 10° N
H-2A R/B 4.1 22:40:22 24° NW 22:40:22 24° NW 22:42:13 10° NNW
Cosmos 1943 Rocket 3.7 22:48:27 28° NNE 22:48:27 28° NNE 22:51:00 10° NNE
Terra 3.3 22:47:56 35° NW 22:47:56 35° NW 22:50:46 10° NNW
ATLAS 5 CENTAUR R/B 3.9 22:44:03 10° W 22:48:17 26° NNW 22:52:52 10° NNE
USA 267 3.7 22:50:51 52° WSW 22:50:51 52° WSW 22:56:20 10° WNW
H-2A R/B 3.6 23:02:14 30° WNW 23:02:14 30° WNW 23:06:06 10° NNW
Cosmos 2219 4.3 23:03:39 10° NNW 23:07:17 41° NNW 23:07:17 41° NNW
Cosmos 2297 Rocket 3.8 23:42:24 10° NNW 23:45:30 31° N 23:45:30 31° N
ATLAS 3B R/B 3.7 23:53:25 42° NE 23:53:25 42° NE 23:57:51 10° NE
